Location: ????? ???????
(25.7275°N, 32.5929°E)
Time: 17:46:13
(UTC+00:00)

Daily predictions for brighter satellites

Satellite Brightness Start Highest point End
(mag) Time Altitude Azimuth Time Altitude Azimuth Time Altitude Azimuth
Cosmos 1707 Rocket 3.8 16:11:02 10° N 16:15:13 45° E 16:19:22 10° SSE
Cosmos 2219 Rocket 3.7 16:14:34 10° SE 16:17:10 13° E 16:19:46 10° ENE
TSX-5 3.2 16:18:00 10° NNW 16:21:30 66° ENE 16:24:37 10° SSE
Okean-O 3.3 16:17:46 10° SE 16:21:44 33° ENE 16:25:43 10° N
SL-16 R/B 3.0 16:16:16 10° SSW 16:21:48 56° WNW 16:27:21 10° N
Cosmos 2181 Rocket 4.3 16:16:37 10° N 16:23:01 77° W 16:29:19 10° S
Cosmos 1939 Rocket 4.4 16:20:03 10° S 16:23:41 40° W 16:27:19 10° NNW
CZ-4B R/B 4.0 16:23:54 10° NNW 16:26:21 22° WNW 16:28:50 10° SW
CZ-4 R/B 1.5 16:22:54 10° SSE 16:26:34 47° ENE 16:30:16 10° N
ARGOS 3.8 16:23:38 10° SE 16:28:26 34° ENE 16:33:16 10° N
Okean 1 4.0 16:32:01 10° NNE 16:35:40 32° E 16:39:17 10° SSE
Delta 128 4.5 16:28:49 10° W 16:35:41 71° N 16:40:29 15° E
Cosmos 2263 Rocket 2.1 16:30:12 10° NNW 16:35:44 67° ENE 16:41:15 10° SSE
SJ-11-01 4.3 16:33:29 10° SSE 16:38:01 54° ENE 16:42:34 10° N
Delta 7925 Rocket 3.1 16:33:36 10° W 16:38:24 90° NNE 16:41:56 17° E
Cosmos 2237 4.3 16:33:14 10° SSW 16:38:55 83° WNW 16:44:41 10° NNE
ATLAS CENTAUR R/B 1.9 16:37:11 10° SW 16:40:46 52° WNW 16:44:18 10° NNE
Cosmos 1470 Rocket 3.5 16:37:15 10° S 16:41:44 83° E 16:46:12 10° N
GPS 2-14 Rocket1 3.5 16:39:30 10° WSW 16:43:02 35° S 16:45:22 18° ESE
Cosmos 1515 3.8 16:43:55 10° N 16:47:37 49° E 16:51:18 10° SSE
IRS-P2 Rocket 4.5 16:43:02 10° SSE 16:48:11 68° ENE 16:53:23 10° N
IRS-1C Rocket 4.4 16:45:53 10° S 16:51:06 71° WSW 16:56:22 10° NNW
CZ-2C R/B 2.6 16:45:41 10° NNE 16:51:06 84° E 16:56:24 10° S
Meteor 2-12 Rocket 4.4 16:45:04 10° S 16:51:07 87° E 16:57:11 10° N
SWIFT 3.3 16:48:06 10° WSW 16:51:53 34° S 16:53:59 21° ESE
H-2A R/B 2.2 16:47:27 10° S 16:52:50 85° WSW 16:58:19 10° NNW
CSL-04 Rocket 3.8 16:53:39 10° SSE 16:59:02 54° ENE 17:04:24 10° N
CSL-04 Debris 4.2 16:53:48 10° SSE 16:59:05 58° ENE 17:04:25 10° N
USA 234 4.2 16:53:53 10° NNE 17:00:01 45° NW 17:06:10 10° WSW
Lacrosse 5 rocket 4.3 16:58:34 10° W 17:00:53 14° WSW 17:03:08 10° SSW
Cosmos 1486 Rocket 4.1 16:56:04 10° N 17:01:16 55° ENE 17:06:26 10° SSE
Meteor 1-5 Rocket 4.0 16:56:26 10° S 17:01:39 62° E 17:06:57 10° NNE
Cosmos 968 Rocket 3.4 16:57:09 10° N 17:02:23 66° ENE 17:07:35 10° SSE
Cosmos 1933 Rocket 3.5 16:58:27 10° S 17:02:46 86° W 17:07:08 10° N
Cosmos 2333 4.1 16:58:15 10° S 17:03:47 67° ESE 17:09:23 10° NNE
DMSP B5D2-2 3.9 17:01:32 10° NNE 17:06:45 74° ESE 17:11:55 10° S
APEX 2.2 17:04:22 10° NNW 17:07:03 85° WSW 17:07:40 51° SSE
SeaSat 1 4.4 17:06:14 10° N 17:10:27 29° WNW 17:14:40 10° WSW
Cosmos 1666 2.5 17:07:11 10° S 17:10:49 59° E 17:14:28 10° NNE
Cosmos 1844 Rocket 3.9 17:06:51 10° NNE 17:10:05 21° NE 17:10:05 21° NE
Cosmos 2360 Rocket 3.2 17:07:20 10° SW 17:12:43 47° WNW 17:18:09 10° N
Nadezhda 3 Rocket 4.1 17:09:57 10° N 17:16:20 84° W 17:22:41 10° S
Cosmos 1862 Rocket 4.2 17:13:06 10° NNW 17:17:30 57° W 17:21:51 10° S
Cosmos 2242 Rocket 4.1 17:13:51 10° N 17:17:15 39° NE 17:17:15 39° NE
Cosmos 2333 Rocket 2.1 17:13:27 10° S 17:19:03 72° ESE 17:24:44 10° NNE
Meteor 1-19 Rocket 4.4 17:14:04 10° N 17:19:55 77° W 17:25:34 10° S
YAOGAN 1 4.1 17:16:05 10° SSW 17:20:04 37° W 17:24:05 10° NNW
NOSS 3-2 (A) 3.8 17:15:29 10° S 17:19:19 32° SE 17:19:19 32° SE
GP-B 3.2 17:19:03 10° S 17:23:28 76° W 17:27:53 10° N
GPS 2-12 Rocket1 4.5 17:21:50 10° SW 17:25:48 25° SSE 17:25:56 25° SSE
Meteor 2-4 Rocket 3.7 17:23:07 10° N 17:28:59 71° E 17:34:54 10° SSE
Lacrosse 4 Rocket 1.3 17:26:08 10° SSW 17:30:25 89° WNW 17:31:08 62° NNE
ATLAS 2A CENTAUR R/B 4.4 16:27:48 10° W 17:31:22 81° SSW 17:38:12 33° ESE
Helios 1A Rocket 4.0 17:30:18 10° S 17:34:11 44° W 17:38:04 10° NNW
DELTA 2 R/B (1) 4.0 17:31:26 10° WSW 17:36:52 56° NNW 17:38:32 40° NNE
Cosmos 1503 Rocket 3.8 17:32:48 10° N 17:37:41 67° NE 17:37:41 67° NE
SL-8 Rocket 4.1 17:37:28 10° S 17:43:42 73° W 17:49:56 10° N
H-2A R/B 3.9 17:41:03 10° SSW 17:44:11 15° S 17:44:11 15° S
Hubble Space Telescope 2.1 17:42:13 10° WSW 17:44:45 34° SW 17:44:45 34° SW
SME Rocket 3.9 17:40:02 10° N 17:46:30 68° WNW 17:50:56 10° SSW
Meteor 1-11 Rocket 3.7 17:42:37 10° S 17:48:26 85° W 17:54:09 10° N
COSMOS 2428 2.6 17:43:11 10° SSW 17:48:52 85° WNW 17:50:33 48° NNE
FUSE 3.9 17:44:06 10° W 17:49:17 80° SW 17:49:17 80° SW
Cosmos 44 Rocket 3.6 17:48:55 10° NNW 17:53:23 66° NW 17:53:23 66° NW
Cosmos 2366 rocket 4.2 17:51:48 10° SSW 17:58:01 69° W 18:04:19 10° N
Cosmos 2219 Rocket 2.9 17:55:10 10° SW 18:00:33 51° WNW 18:04:10 21° N
Delta 2 Rocket 3.8 17:54:28 10° WSW 18:00:13 78° SW 18:00:13 78° SW
MetOp-A 4.5 18:06:43 61° W 18:06:43 61° W 18:11:49 10° NNW
Palapa 6 Rocket 4.5 18:11:25 10° W 18:18:42 69° SSW 18:18:42 69° SSW
Centaur AC-64 4.3 18:16:54 10° W 18:36:27 63° SW 18:36:27 63° SW
